Regional Weather Roundup
Issued by NWS

Home | Current Version | Previous Version | Text Only | Print | Product List | Glossary Off
Versions: 1 2 3 4 5 6 7 8 9 10 11 12 13 14 15 16 17 18 19 20 21 22 23 24 25 26 27 28 29 30 31 32 33 34 35 36 37 38 39 40 41 42 43 44 45 46 47 48 49 50

841
ASUS43 KLMK 300910
RWRKY
KENTUCKY REGIONAL WEATHER ROUNDUP
NATIONAL WEATHER SERVICE LOUISVILLE KY
500 AM EDT THU MAR 30 2017

NOTE "FAIR" INDICATES FEW OR NO CLOUDS BELOW 12,000 FEET
WITH NO SIGNIFICANT WEATHER AND/OR OBSTRUCTIONS TO VISIBILITY.

KYZ001>023-026-027-061>063-070>075-301000-
WESTERN AND SOUTH CENTRAL KENTUCKY

CITY           SKY/WX    TMP DP  RH WIND       PRES   REMARKS
PADUCAH        CLOUDY    72  55  55 S5        29.69F
HENDERSON      CLOUDY    61  52  72 SE9       29.71F
OWENSBORO      CLOUDY    61  53  75 SE12      29.76F
HOPKINSVILLE   PTCLDY    68  58  69 SE8       29.76F
BOWLING GREEN  CLOUDY    62  54  74 CALM      29.81F
GLASGOW        PTCLDY    65  53  66 CALM      29.83F
$$

KYZ024-025-028>034-038-045-046-053-301000-
NORTH CENTRAL KENTUCKY

CITY           SKY/WX    TMP DP  RH WIND       PRES   REMARKS
LOUISVILLE/SDF CLOUDY    56  45  66 SE7       29.83F
LOUISVILLE/LOU CLOUDY    56  46  69 SE3       29.84F
FORT KNOX      MOCLDY    55  49  80 E7        29.81F
$$

KYZ035>037-039>044-047>052-055>060-089>105-301000-
NORTHEAST KENTUCKY

CITY           SKY/WX    TMP DP  RH WIND       PRES   REMARKS
LEXINGTON      CLOUDY    55  45  68 SE12      29.87F
COVINGTON      CLOUDY    53  44  71 E9        29.87F
FRANKFORT      CLOUDY    54  45  71 CALM      29.86F
$$

KYZ054-064>069-076>088-106>120-301000-
SOUTHEAST KENTUCKY

CITY           SKY/WX    TMP DP  RH WIND       PRES   REMARKS
JACKSON        CLOUDY    50  45  83 VRB3      29.93F
LONDON         PTCLDY    55  47  74 SE3       29.91F
SOMERSET       CLOUDY    55  46  71 CALM      29.91S
MIDDLESBORO    CLOUDY    50  50  97 CALM      29.95F
MONTICELLO     PTSUNNY   60  52  74 VRB7      29.91S
$$





USA.gov is the U.S. government's official web portal to all federal, state and local government web resources and services.